Taurus 1
1 44530U 19059C   25061.81886551  .00010368  00000-0  20114-2 0  9994
2 44530  98.5934 196.7566 0009125 334.9521  25.1236 14.63393947289489
Duchifat 3
1 44854U 19089C   25061.85302667  .00043021  00000-0  12033-2 0  9994
2 44854  36.9464 258.1912 0005600  74.7870 285.3502 15.35705302287701
TO-108
1 44881U 19093C   25061.80850096  .00002046  00000-0  24455-3 0  9992
2 44881  97.8002 139.5154 0013707 190.3420 169.7515 14.85215565281410
FloripaSat 1
1 44885U 19093G   25061.80109222  .00008966  00000-0  79176-3 0  9991
2 44885  97.8200 149.3207 0011304 170.9025 189.2403 14.96552539281968
RS-44
1 44909U 19096E   25061.73422648  .00000026  00000-0  57075-4 0  9997
2 44909  82.5196 292.9725 0217644 166.4392 194.2688 12.79738786242093
UPMSat 2
1 46276U 20061E   25061.76054228  .00044756  00000-0  67393-3 0  9999
2 46276  97.2579 133.7898 0000956 188.4650 171.6588 15.54690352250044
SALSAT
1 46495U 20068K   25061.45557475  .00012112  00000-0  55873-3 0  9998
2 46495  97.8519  35.1236 0013598 137.6924 222.5361 15.20322342243450
CubeSX-Sirius-HSE
1 47951U 21022V   25061.80173337  .00084834  00000-0  12179-2 0  9998
2 47951  97.4309 329.6863 0003940 309.8307  50.2600 15.55823828218318
CubeSX-HSE
1 47952U 21022W   25061.84082639  .00092603  00000-0  12997-2 0  9998
2 47952  97.4309 329.9185 0003594 297.5580  62.5309 15.56411169218336
KSU-Cubesat
1 47954U 21022Y   25061.68272279  .00397451  00000-0  17525-2 0  9994
2 47954  97.4263 334.3743 0002882 130.7740 229.3779 15.83489551218325
GRBAlpha
1 47959U 21022AD  25061.80443466  .00085504  00000-0  12107-2 0  9995
2 47959  97.4296 330.0334 0003842 307.2868  52.8036 15.56197100217155
Orbicraft-Zorkiy
1 47960U 21022AE  25061.80977269  .00158460  00000-0  13170-2 0  9993
2 47960  97.4282 333.4054 0000270 212.6579 147.4667 15.69667076218035
TUBIN
1 48900U 21059X   25061.77720312  .00042007  00000-0  76155-3 0  9991
2 48900  97.6683 223.8170 0005016 245.4087 114.6641 15.49492014204689
LEDSAT
1 49069U 21073D   25061.76739066  .00047783  00000-0  96051-3 0  9992
2 49069  97.3999 140.1957 0012185  82.2937 277.9695 15.46412192196096
CUTE
1 49263U 21088D   25061.18286462  .00022104  00000-0  51573-3 0  9997
2 49263  97.4610 134.8495 0008676 238.1977 121.8425 15.42199260189089
TeikyoSat 4
1 49396U 21102B   25061.57267688  .00003429  00000-0  23301-3 0  9990
2 49396  97.4250 103.5409 0014484 110.8964 249.3816 15.06920916181633
Z-Sat
1 49399U 21102E   25061.79939668  .00007182  00000-0  40811-3 0  9996
2 49399  97.3948 106.2855 0020129  87.4666 272.8869 15.13021217182033
KOSEN 1
1 49402U 21102H   25061.68479555  .00010092  00000-0  49541-3 0  9996
2 49402  97.3852 108.8907 0017782  67.7577 292.5541 15.18134613182273
HO-113
1 50466U 21131B   25061.79497743  .00001298  00000-0  42099-3 0  9990
2 50466  98.5112 151.6555 0005152  79.1946 280.9822 14.40583287167227
IRIS-A
1 51044U 22002BN  25061.77102574  .00091721  00000-0  10741-2 0  9992
2 51044  97.3398 137.2894 0004213 190.0349 170.0825 15.61231864174300
Foresail-1
1 52766U 22057AL  25061.35864177  .00087694  00000-0  10619-2 0  9990
2 52766  97.5999 203.9286 0007003 276.8245  83.2214 15.60350402154275
SNUGLITE 2
1 52899U 22065F   25061.38931598  .00002781  00000-0  55481-3 0  9992
2 52899  98.1507 204.4484 0008405  68.6202 291.5896 14.62724429141986
IO-117
1 53106U 22080B   25051.21822557 -.00000003  00000-0  00000+0 0  9995
2 53106  70.1434 106.3440 0008542  48.0089 312.1297  6.42557744 61200
FO-118
1 54684U 22167C   25061.72005131  .01976367  37549-2  18573-2 0  9993
2 54684  97.5972 227.2801 0010306 290.2810  69.7367 16.12934594124360
UmKA 1 (RS40S)
1 57172U 23091G   25061.83572805  .00008592  00000-0  48273-3 0  9990
2 57172  97.5724 117.7778 0013969 318.6832  41.3341 15.13473370 92534
CubeBel-2 (EU11S)
1 57175U 23091K   25061.82756109  .00012132  00000-0  62637-3 0  9998
2 57175  97.5726 118.3910 0012048 329.2057  30.8467 15.16401009 92577
VERONIKA
1 58261U 23174F   25061.81350928  .00065736  00000-0  12879-2 0  9995
2 58261  97.4242 143.8749 0006182  41.7489 318.4232 15.47138601 73300
KAFASAT
1 58317U 23174BP  25061.54358471  .00255792  00000-0  19409-2 0  9997
2 58317  97.4115 147.3650 0004752 311.8320  48.2537 15.71568913 73538
ENSO
1 58470U 23185J   25061.79496270  .00044715  00000-0  99302-3 0  9998
2 58470  97.3861 134.5844 0008559  81.6691 278.5527 15.43531070 69737
EIRSAT-1
1 58472U 23185L   25061.83545368  .00059159  00000-0  11235-2 0  9994
2 58472  97.3852 135.4038 0007047  80.1605 280.0441 15.48062992 69790
SONATE-2
1 59112U 24043Q   25061.31601189  .00025005  00000-0  84000-3 0  9991
2 59112  97.4992 190.9308 0012202 107.6518 252.6056 15.30761282 55129
MO-122
1 60209U 24125G   25061.54552503  .00022289  00000-0  73866-3 0  9990
2 60209  97.2921 274.5106 0021693 129.8542 230.4612 15.31060918 36771
GRBBeta
1 60237U 24128C   25061.34312519  .00008025  00000-0  62704-3 0  9994
2 60237  61.9919  65.2264 0042568  34.8509 325.5355 15.01110978 35294
Curium One
1 60242U 24128H   25061.38211763  .00012778  00000-0  95059-3 0  9992
2 60242  61.9820  64.6010 0043013  29.7680 330.5844 15.02560725 35314
ROBUSTA-3A
1 60243U 24128J   25061.35739778  .00011927  00000-0  89885-3 0  9996
2 60243  61.9888  65.2121 0041158  27.7274 332.5999 15.02182296 35309
CatSat
1 60246U 24125J   25061.55037875  .00013416  00000-0  48436-3 0  9999
2 60246  97.2706 274.7181 0046688  86.7180 273.9399 15.27554364 34857
HYPERVIEW-1G (RS66S)
1 61772U 24199AP  25061.78265566  .00024375  00000-0  84396-3 0  9991
2 61772  97.3697 291.1217 0015061 180.2061 179.9175 15.29745719 61826
AO-123
1 61781U 24199AY  25061.78965958  .00010874  00000-0  42149-3 0  9992
2 61781  97.3705 290.8209 0016322 182.2172 177.8997 15.26190412 61807
ZIMSAT 2
1 61783U 24199BA  25061.80287367  .00034931  00000-0  11375-2 0  9994
2 61783  97.3691 291.2412 0015961 179.6350 180.4906 15.31641654 64987
POEM 4 (BGS ARPIT)
1 62461U 24253C   25061.70988313  .00214933  27428-4  74397-3 0  9990
2 62461  55.2175 319.5021 0009480 103.7919 256.4190 15.89093107  9782
HADES-R (SO-124)
1 62690U 25009CK  25061.19002692  .00043539  00000-0  20396-2 0  9998
2 62690  97.4177 143.0027 0002658  93.9406 266.2133 15.19565479  7001
